Hourly Data Report for June 17, 2017

QUALICUM BEACH AIRPORT
BRITISH COLUMBIA

49°20'14.000" N
124°23'38.000" W
58.20 m
1026562
71766
VOQ

Download Data

Hourly Data (June 2017)
Hourly Data Report for June 17, 2017
TIME
LST
Temp Definition
°C
Dew Point Definition
°C
Rel Hum Definition
%
Precip. Amount Definition
mm

Wind Dir Definition
10's deg

Wind Spd Definition
km/h
Visibility Definition
km
Stn Press Definition
kPa
Hmdx Definition


Wind Chill Definition


Weather Definition


00:00 9.7 7.2 85 0.0 32 4   101.27     LegendNANA
01:00 12.1 6.9 71 0.0 27 7   101.28     LegendNANA
02:00 11.7 6.9 72 0.0 25 8   101.29     LegendNANA
03:00 11.5 6.8 72 0.0 26 5   101.30     LegendNANA
04:00 10.8 6.9 77 0.0 25 4   101.31     LegendNANA
05:00 8.7 7.6 93 0.0 18 2   101.33     LegendNANA
06:00 10.0 8.3 89 0.0 15 2   101.34     LegendNANA
07:00 11.9 8.5 80 0.0 30 4   101.38     LegendNANA
08:00 13.8 8.6 71 0.0 3 1   101.37     LegendNANA
09:00 13.9 9.5 75 0.0 6 7   101.34     LegendNANA
10:00 13.5 9.7 78 0.0 10 14   101.35     LegendNANA
11:00 14.3 9.5 73 0.0 11 10   101.36     LegendNANA
12:00 14.6 9.0 69 0.0 10 14   101.31     LegendNANA
13:00 14.7 9.7 72 0.0 11 14   101.29     LegendNANA
14:00 14.4 9.4 72 0.0 10 11   101.29     LegendNANA
15:00 15.0 10.1 73 0.0 9 6   101.29     LegendNANA
16:00 14.7 10.3 75 0.0 9 7   101.28     LegendNANA
17:00 14.8 9.6 71 0.0 4 2   101.26     LegendNANA
18:00 14.9 9.3 69 0.0 30 1   101.24     LegendNANA
19:00 14.2 9.6 74 0.0 27 5   101.25     LegendNANA
20:00 13.3 9.8 79 0.0 24 2   101.21     LegendNANA
21:00 12.6 10.1 85 0.0 0 1   101.21     LegendNANA
22:00 12.2 9.6 84 0.0 24 3   101.25     LegendNANA
23:00 11.8 8.7 81 0.0 23 2   101.24     LegendNANA

Notes on Data Quality.

Legend

  • E = Estimated
  • M = Missing
  • NA = Not Available*
  • [empty] = Indicates an unobserved value
Date modified: